CST,Max TemperatureF,Mean TemperatureF,Min TemperatureF,Max Dew PointF,MeanDew PointF,Min DewpointF,Max Humidity, Mean Humidity, Min Humidity, Max Sea Level PressureIn, Mean Sea Level PressureIn, Min Sea Level PressureIn, Max VisibilityMiles, Mean VisibilityMiles, Min VisibilityMiles, Max Wind SpeedMPH, Mean Wind SpeedMPH, Max Gust SpeedMPH,PrecipitationIn, CloudCover, Events, WindDirDegrees
2013-1-1,44,36,27,39,25,20,85,64,43,30.33,30.21,30.06,10,10,7,18,10,21,0.00,3,,358
2013-1-2,48,37,25,24,22,20,88,63,38,30.36,30.31,30.24,10,9,7,9,3,12,0.00,0,,24
2013-1-3,44,31,18,26,21,16,92,65,37,30.50,30.44,30.36,10,10,10,9,4,12,0.00,6,,32
2013-1-4,40,36,32,34,32,22,100,74,48,30.50,30.43,30.33,10,8,1,16,6,20,0.06,8,Snow,189
2013-1-5,59,44,29,34,29,21,92,58,24,30.34,30.27,30.17,10,10,10,18,9,22,0.00,3,,225
2013-1-6,56,39,22,25,21,18,81,52,22,30.46,30.38,30.32,10,10,10,9,4,13,0.00,0,,32
2013-1-7,52,40,28,30,25,20,70,54,38,30.30,30.17,30.05,10,10,10,17,8,20,0.00,0,,144
2013-1-8,50,43,35,48,43,29,100,82,64,30.07,30.01,29.93,10,4,1,14,6,16,0.15,7,Rain,57
2013-1-9,50,47,44,50,46,32,100,97,93,30.14,30.02,29.93,10,3,0,24,11,31,0.98,8,Fog-Rain,349
2013-1-10,60,53,45,49,45,32,100,78,55,30.00,29.93,29.87,10,9,0,22,9,26,0.12,6,Rain,231
2013-1-11,72,60,47,51,46,40,77,59,41,29.87,29.77,29.69,10,10,10,30,15,39,0.00,0,,189
2013-1-12,61,46,31,51,30,18,77,60,42,30.03,29.85,29.75,10,10,10,24,13,29,0.00,6,,355
2013-1-13,38,31,24,20,18,15,81,63,44,30.28,30.21,30.05,10,10,10,22,10,23,0.00,1,,2
2013-1-14,42,31,20,19,16,13,77,56,34,30.33,30.26,30.19,10,10,10,16,7,16,0.00,1,,25
2013-1-15,38,30,22,19,16,14,75,56,37,30.29,30.24,30.18,10,10,10,18,10,22,0.00,5,,343
2013-1-16,52,36,19,29,20,13,77,51,25,30.31,30.26,30.17,10,10,10,24,8,28,0.00,1,,280
2013-1-17,59,44,28,30,28,26,85,59,33,30.51,30.44,30.32,10,10,10,14,5,17,0.00,0,,357
2013-1-18,63,46,28,33,29,25,85,58,30,30.49,30.35,30.19,10,10,10,21,10,24,0.00,0,,183
2013-1-19,70,55,40,33,30,25,62,41,20,30.19,30.14,30.06,10,10,10,21,9,28,0.00,0,,231
2013-1-20,69,52,34,35,31,28,75,51,27,30.23,30.14,30.06,10,10,10,12,4,12,0.00,0,,292
2013-1-21,50,41,32,31,25,22,89,64,38,30.34,30.25,30.12,10,10,10,16,6,25,0.00,0,,360
2013-1-22,66,48,30,50,36,25,83,59,34,30.28,30.21,30.13,10,10,10,24,9,29,0.00,1,,185
2013-1-23,76,62,48,54,49,44,100,68,36,30.23,30.15,30.09,10,9,4,20,9,25,0.00,0,,200
2013-1-24,80,65,49,55,48,41,86,60,33,30.15,30.07,29.99,10,10,10,17,8,28,0.00,0,,225
2013-1-25,52,45,38,41,35,33,85,68,50,30.20,30.12,30.01,10,10,7,17,7,30,0.00,0,,2
2013-1-26,67,52,36,56,42,32,93,68,42,30.18,30.09,29.98,10,10,7,25,8,31,0.00,0,,146
2013-1-27,76,67,57,56,54,52,93,70,46,30.00,29.92,29.83,10,10,9,26,14,35,T,2,,179
2013-1-28,80,69,58,62,59,55,93,69,45,29.95,29.83,29.72,10,10,10,28,16,36,0.00,3,,174
2013-1-29,70,58,46,63,42,17,93,56,19,29.77,29.64,29.55,10,10,9,36,20,45,T,3,,232
2013-1-30,52,44,35,29,17,9,64,41,17,30.14,30.05,29.77,10,10,10,26,15,38,0.00,1,,286
2013-1-31,66,49,32,24,17,11,51,33,15,30.24,30.15,30.09,10,10,10,23,10,28,0.00,0,,207